Weather History for Boonville, MO

Change the Weather History Date:

Thursday, December 13, 2012

  Actual Average Record
Temperature  
Mean Temperature 44 °F -  
Max Temperature 59 °F 42 °F 68 °F (1991)
Min Temperature 29 °F 23 °F -7 °F (1962)
Degree Days  
Heating Degree Days 21    
Moisture  
Dew Point 21 °F    
Average Humidity 46    
Maximum Humidity 64    
Minimum Humidity 23    
Precipitation  
Precipitation 0.00 in - - ()
Sea Level Pressure  
Sea Level Pressure 30.17 in    
Wind  
Wind Speed 8 mph (South)    
Max Wind Speed 14 mph    
Max Gust Speed 18 mph    
Visibility 10 miles    
Events      
Averages and records for this station are not official NWS values.
T = Trace of Precipitation, MM = Missing Value Source: NWS Daily Summary

Daily Weather History Graph

Daily Weather History Graph

Search for Another Location

Airport:

Trip Planner

Search our weather history database for the weather conditions in past years. The results will help you decide how hot, cold, wet, or windy it might be!

Date:

Astronomy

Dec. 13, 2012 Rise Set
Actual Time 7:21 AM CST 4:49 PM CST
Civil Twilight 6:51 AM CST 5:19 PM CST
Nautical Twilight 6:17 AM CST 5:52 PM CST
Astronomical Twilight 5:45 AM CST 6:25 PM CST
Moon 7:30 AM CST (12/13) 5:31 PM CST (12/13)
Length of Visible Light 10h 27m
Length of Day
9h 27m
New Moon, 0% of the Moon is Illuminated
Dec 13
New Moon
Dec 19
First Quarter
Dec 28
Full
Jan 4
Last Quarter
Jan 11
New

Hourly Weather History & Observations

Time (CST) Temp. Windchill Dew Point Humidity Pressure Visibility Wind Dir Wind Speed Gust Speed Precip Events Conditions
12:15 AM 34.5 °F 27.3 °F 17.1 °F 49% 30.22 in 10.0 mi SSE 9.2 mph - N/A   Clear
12:35 AM 34.0 °F 27.2 °F 17.2 °F 50% 30.22 in 10.0 mi SSE 8.1 mph - N/A   Clear
12:55 AM 33.8 °F 27.7 °F 17.4 °F 51% 30.22 in 10.0 mi South 6.9 mph - N/A   Clear
1:15 AM 33.3 °F 27.1 °F 17.8 °F 53% 30.22 in 10.0 mi SSE 6.9 mph - N/A   Clear
1:35 AM 33.1 °F 27.7 °F 17.6 °F 53% 30.22 in 10.0 mi SSE 5.8 mph - N/A   Clear
1:55 AM 32.9 °F 26.7 °F 17.6 °F 53% 30.23 in 10.0 mi SSE 6.9 mph - N/A   Clear
2:15 AM 32.9 °F 26.7 °F 17.6 °F 53% 30.22 in 10.0 mi SSE 6.9 mph - N/A   Clear
2:35 AM 32.4 °F 26.0 °F 17.6 °F 55% 30.23 in 10.0 mi SSE 6.9 mph - N/A   Clear
2:55 AM 31.5 °F 24.9 °F 17.8 °F 57% 30.23 in 10.0 mi SSE 6.9 mph - N/A   Clear
3:15 AM 31.3 °F 24.7 °F 18.1 °F 58% 30.23 in 10.0 mi SE 6.9 mph - N/A   Clear
3:35 AM 30.9 °F 24.3 °F 18.5 °F 60% 30.23 in 10.0 mi SSE 6.9 mph - N/A   Clear
3:55 AM 30.0 °F 23.2 °F 18.5 °F 62% 30.22 in 10.0 mi SE 6.9 mph - N/A   Clear
4:15 AM 30.2 °F 23.4 °F 18.7 °F 62% 30.20 in 10.0 mi SSE 6.9 mph - N/A   Clear
4:35 AM 29.5 °F 23.4 °F 18.5 °F 64% 30.20 in 10.0 mi SSE 5.8 mph - N/A   Clear
4:55 AM 30.0 °F 23.2 °F 18.5 °F 62% 30.20 in 10.0 mi SSE 6.9 mph - N/A   Clear
5:15 AM 30.0 °F 23.2 °F 18.5 °F 62% 30.20 in 10.0 mi SSE 6.9 mph - N/A   Clear
5:35 AM 29.8 °F 21.5 °F 19.0 °F 64% 30.19 in 10.0 mi SSE 9.2 mph - N/A   Clear
5:55 AM 31.3 °F 23.3 °F 19.2 °F 61% 30.20 in 10.0 mi SSE 9.2 mph - N/A   Clear
6:15 AM 31.6 °F 23.1 °F 19.2 °F 60% 30.20 in 10.0 mi SSE 10.4 mph - N/A   Clear
6:35 AM 32.2 °F 23.8 °F 19.2 °F 59% 30.20 in 10.0 mi SSE 10.4 mph - N/A   Clear
6:55 AM 32.9 °F 24.7 °F 19.0 °F 57% 30.20 in 10.0 mi SSE 10.4 mph - N/A   Clear
7:15 AM 32.9 °F 24.1 °F 19.0 °F 57% 30.20 in 10.0 mi SSE 11.5 mph - N/A   Clear
7:35 AM 33.1 °F 24.9 °F 19.0 °F 56% 30.20 in 10.0 mi SSE 10.4 mph - N/A   Clear
7:55 AM 33.8 °F 25.3 °F 19.2 °F 55% 30.19 in 10.0 mi SSE 11.5 mph - N/A   Clear
8:15 AM 35.4 °F 26.8 °F 19.2 °F 52% 30.19 in 10.0 mi South 12.7 mph - N/A   Clear
8:35 AM 37.2 °F 30.0 °F 19.6 °F 49% 30.20 in 10.0 mi South 10.4 mph - N/A   Clear
8:55 AM 38.3 °F 31.4 °F 19.4 °F 47% 30.20 in 10.0 mi South 10.4 mph - N/A   Clear
9:15 AM 38.5 °F 31.6 °F 19.8 °F 47% 30.20 in 10.0 mi South 10.4 mph - N/A   Clear
9:35 AM 39.7 °F 33.7 °F 20.3 °F 46% 30.20 in 10.0 mi SSE 9.2 mph - N/A   Clear
9:55 AM 42.3 °F 35.9 °F 20.5 °F 42% 30.20 in 10.0 mi South 11.5 mph - N/A   Clear
10:15 AM 45.9 °F 40.0 °F 20.5 °F 37% 30.20 in 10.0 mi South 12.7 mph 18.4 mph N/A   Clear
10:35 AM 48.4 °F - 20.7 °F 33% 30.20 in 10.0 mi South 10.4 mph - N/A   Clear
10:55 AM 50.0 °F - 20.7 °F 32% 30.19 in 10.0 mi South 10.4 mph 17.3 mph N/A   Clear
11:15 AM 51.3 °F - 20.3 °F 30% 30.18 in 10.0 mi South 11.5 mph - N/A   Clear
11:35 AM 53.6 °F - 21.2 °F 28% 30.18 in 10.0 mi SSW 10.4 mph 17.3 mph N/A   Clear
11:55 AM 54.9 °F - 21.0 °F 27% 30.18 in 10.0 mi SSW 11.5 mph 18.4 mph N/A   Clear
12:15 PM 55.6 °F - 20.7 °F 26% 30.16 in 10.0 mi SSW 11.5 mph 18.4 mph N/A   Unknown
12:35 PM 56.7 °F - 20.8 °F 25% 30.16 in 10.0 mi SSW 13.8 mph 17.3 mph N/A   Unknown
12:55 PM 57.2 °F - 20.7 °F 24% 30.15 in 10.0 mi SSW 10.4 mph - N/A   Unknown
1:15 PM 58.1 °F - 21.2 °F 24% 30.15 in 10.0 mi SW 10.4 mph 18.4 mph N/A   Clear
1:35 PM 58.1 °F - 21.0 °F 24% 30.13 in 10.0 mi SW 11.5 mph 17.3 mph N/A   Clear
1:55 PM 58.6 °F - 21.2 °F 24% 30.12 in 10.0 mi South 12.7 mph 17.3 mph N/A   Clear
2:15 PM 58.8 °F - 21.2 °F 23% 30.12 in 10.0 mi SW 11.5 mph 16.1 mph N/A   Clear
2:35 PM 59.0 °F - 21.2 °F 23% 30.11 in 10.0 mi South 8.1 mph 16.1 mph N/A   Clear
2:55 PM 59.0 °F - 22.1 °F 24% 30.11 in 10.0 mi South 12.7 mph - N/A   Clear
3:15 PM 58.6 °F - 22.3 °F 25% 30.11 in 10.0 mi South 10.4 mph 16.1 mph N/A   Clear
3:35 PM 58.3 °F - 22.5 °F 25% 30.11 in 10.0 mi SSW 6.9 mph - N/A   Clear
3:55 PM 57.7 °F - 23.0 °F 26% 30.11 in 10.0 mi South 6.9 mph - N/A   Clear
4:35 PM 54.5 °F - 23.5 °F 30% 30.11 in 10.0 mi South 6.9 mph - N/A   Clear
7:15 PM 43.5 °F 40.9 °F 24.6 °F 47% 30.11 in 10.0 mi South 4.6 mph - N/A   Clear
7:35 PM 44.4 °F 42.9 °F 24.1 °F 45% 30.12 in 10.0 mi South 3.5 mph - N/A   Clear
7:55 PM 44.2 °F 42.7 °F 24.1 °F 45% 30.13 in 10.0 mi South 3.5 mph - N/A   Clear
8:15 PM 42.4 °F 40.7 °F 24.3 °F 49% 30.13 in 10.0 mi South 3.5 mph - N/A   Clear
8:35 PM 41.9 °F 39.0 °F 24.4 °F 50% 30.13 in 10.0 mi SSE 4.6 mph - N/A   Clear
8:55 PM 41.0 °F 37.1 °F 24.4 °F 52% 30.13 in 10.0 mi SSE 5.8 mph - N/A   Clear
9:15 PM 38.3 °F 35.9 °F 24.6 °F 58% 30.13 in 10.0 mi SSE 3.5 mph - N/A   Clear
9:35 PM 38.7 °F 34.3 °F 24.6 °F 57% 30.14 in 10.0 mi SSE 5.8 mph - N/A   Clear
9:55 PM 38.7 °F 34.3 °F 24.6 °F 57% 30.14 in 10.0 mi SSE 5.8 mph - N/A   Clear
10:15 PM 38.5 °F 34.1 °F 24.4 °F 57% 30.14 in 10.0 mi SSE 5.8 mph - N/A   Clear
10:35 PM 37.9 °F 32.7 °F 24.4 °F 58% 30.15 in 10.0 mi SSE 6.9 mph - N/A   Clear
10:55 PM 37.9 °F 33.5 °F 24.6 °F 59% 30.15 in 10.0 mi South 5.8 mph - N/A   Clear
11:15 PM 38.5 °F 35.0 °F 24.4 °F 57% 30.16 in 10.0 mi SSE 4.6 mph - N/A   Clear
11:35 PM 38.7 °F 35.2 °F 24.3 °F 56% 30.16 in 10.0 mi SSE 4.6 mph - N/A   Clear